Skip Page Navigation
NASA JPL Caltech
NASA Logo - Jet Propulsion Laboratory + View the NASA Portal
+ Center for Near-Earth Object Studies
JPL Home Earth Solar System Stars & Galaxies Technology
JPL Solar System Dynamics
BODIES ORBITS EPHEMERIDES TOOLS PHYSICAL DATA DISCOVERY FAQ SITE MAP

Significant website upgrade scheduled for September 27. More details available here.

JPL Small-Body Database Browser
Search: [ help ]  
90533 Laurentblind (2004 FB29)
Classification: Main-belt Asteroid          SPK-ID: 2090533
Ephemeris | Orbit Diagram | Orbital Elements | Mission Design | Physical Parameters | Discovery Circumstances ]

[ show orbit diagram ]
Orbital Elements at Epoch 2459396.5 (2021-Jul-01.0) TDB
Reference: JPL 25 (heliocentric ecliptic J2000)
 Element Value Uncertainty (1-sigma)   Units 
e .06914256521274 3.4534e-08  
a 2.693589313565806 1.5511e-08 au
q 2.507347638796243 9.2399e-08 au
i 5.597163734515554 3.8474e-06 deg
node 102.6708614870875 3.6645e-05 deg
peri 170.3725565785393 4.5339e-05 deg
M 231.9870731550114 2.7886e-05 deg
tp 2459970.678364535335
(2023-Jan-26.17836454)
0.00012667 TDB
period 1614.713578754585
4.42
1.3948e-05
3.819e-08
d
yr
n .2229497569950858 1.9258e-09 deg/d
Q 2.879830988335369 1.6584e-08 au
  Orbit Determination Parameters
   # obs. used (total)      658  
   data-arc span      7667 days (20.99 yr)  
   first obs. used      2000-04-05  
   last obs. used      2021-04-02  
   planetary ephem.      DE441  
   SB-pert. ephem.      SB441-N16  
   condition code      0  
   norm. resid. RMS      .57163  
   source      ORB  
   producer      Otto Matic  
   solution date      2021-Jul-08 23:38:24  

Additional Information
 Earth MOID = 1.49107 au 
 Jupiter MOID = 2.18621 au 
 T_jup = 3.360 
[ show covariance matrix ]

Ephemeris | Orbit Diagram | Orbital Elements | Mission Design | Physical Parameters | Discovery Circumstances ]

Physical Parameter Table
Parameter Symbol Value Units Sigma Reference Notes
absolute magnitude H 15.54   n/a MPCxxxxx  
diameter diameter 2.868 km 0.711 urn:nasa:pds:neowise_diameters_albedos::2.0[mainbelt] (http://adsabs.harvard.edu/abs/2011ApJ...741...68M)  
geometric albedo albedo 0.163   0.089 urn:nasa:pds:neowise_diameters_albedos::2.0[mainbelt] (http://adsabs.harvard.edu/abs/2011ApJ...741...68M)  

90533 Laurentblind           Discovered 2004 Mar. 28 by C. Rinner at Ottmarsheim.
Laurent Blind (b. 1965) has been the discoverer's boyfriend for 18 years. His knowledge of programming was a great help in building and automatizing the observatory. He is also a paraglider and equestrian.
NOTE: some special characters may not display properly (any characters within {} are an attempt to place the proper accent above a character)
Reference: 20050523/MPCPages.arcLast Updated: 2005-07-21
Ephemeris | Orbit Diagram | Orbital Elements | Mission Design | Physical Parameters | Discovery Circumstances ]
ABOUT SSD CREDITS/AWARDS PRIVACY/COPYRIGHT GLOSSARY LINKS
FirstGov 2021-Sep-25 16:04 UT
(server date/time)  
NASA Home Page
Site Manager:   Ryan S. Park
Webmaster  Alan B. Chamberlin